Tracking 32571 objects as of 17-Dec-2025
HD Live streaming from Space Station
objects crossing your sky now

YAOGAN-36 02B

Track YAOGAN-36 02B now!
10-day predictions


NORAD ID: 54043
Int'l Code: 2022-133B
Perigee: 487.3 km
Apogee: 492.0 km
Inclination: 35.0 °
Period: 94.3 minutes
Semi major axis: 6860 km
RCS: Unknown
Launch date: October 14, 2022
Source: People's Republic of China (PRC)
Launch site: Xichang Space Center, China (XSC)
Your satellite tracking list
Your tracking list is empty




NASA's NSSDC Master Catalog

Two Line Element Set (TLE):
1 54043U 22133B   25350.95456220  .00007136  00000-0  25779-3 0  9995
2 54043  34.9929 189.2515 0003431 275.9216  84.1109 15.27756105176914
Source of the keplerian elements: AFSPC